Terminal Aerodrome Forecast
Issued by NWS

Home | Current Version | Previous Version | Text Only | Print | Product List | Glossary On
Versions: 1 2 3 4 5 6 7 8 9 10 11 12 13 14 15 16 17 18 19 20 21 22 23 24
000
FTAK31 PAJN 312340
TAFASI
TAF
PASI 312340Z 0100/0124 33007KT 5SM -RA FEW004 OVC025
      TEMPO 0100/0104 3SM -SHRA BR SCT004 OVC015
     FM010600 34005KT P6SM VCSH BKN020 BKN040
     FM011700 27008KT P6SM VCSH SCT025 BKN050 BKN070=

USA.gov is the U.S. government's official web portal to all federal, state and local government web resources and services.